Terug naar catalogus

ORBCOMM FM 13

ActiefCommunicatieLEO
NORAD 25420·PAYLOAD·🇺🇸 United States

Gelanceerd Aug 2, 1998 vanaf Cape Canaveral Space Force Station

Loading…

Volgende Passages (komende 24 uur)

TLE

VersSource: Space-Track

Epoch: Sep 13, 2026, 20:48 UTC

1 25420U 98046H   26256.86728218  .00000605  00000-0  24104-3 0  9998
2 25420  44.9962 192.0815 0005882  17.4217 342.6832 14.38753351468556

Volg ORBCOMM FM 13 in realtime met AllMySat

Download on the App Store